Regional Weather Roundup
Issued by NWS Grand Forks, ND

Home | Current Version | Previous Version | Graphics & Text | Print | Product List | Glossary On
Versions: 1 2 3 4 5 6 7 8 9 10 11 12 13 14 15 16 17 18 19 20 21 22 23 24 25 26 27 28 29 30 31 32 33 34 35 36 37 38 39 40 41 42 43 44 45 46 47 48 49 50
000
ASUS43 KFGF 210831
RWRFGF
PRAIRIE TO PINES  WEATHER ROUNDUP
NATIONAL WEATHER SERVICE EASTERN NORTH DAKOTA/GRAND FORKS ND
200 AM CST TUE NOV 21 2017

 **SATELLITE DATA USED TO AUGMENT SKY COVER AT AUTOMATED STATIONS**
 *****  WEATHER ACROSS EASTERN NORTH DAKOTA  *****

CITY           SKY/WX    TMP DP  RH WIND       PRES   REMARKS
GRAND FORKS    MIX PCPN  19  12  74 NW29G41   29.79R WCI   0
GRAND FRKS AFB MOCLDY    18  12  79 N24G30    29.83R WCI   0
DEVILS LAKE    FAIR      15   8  73 NW24G35   29.86R WCI  -4
FARGO          CLOUDY    24  13  62 NW36G47   29.77R WCI   6
WAHPETON ARPT  NOT AVBL
$$

 ***** WEATHER ACROSS CENTRAL AND WESTERN NORTH DAKOTA  *****

CITY           SKY/WX    TMP DP  RH WIND       PRES   REMARKS
BISMARCK       FAIR      19   7  59 NW17G31   30.01R WCI   4
MINOT          FAIR      10   2  69 NW24G33   30.00R WCI -10
JAMESTOWN      CLOUDY    17   8  67 NW32G40   29.86R WCI  -3
MINOT AFB      FAIR       9   2  74 NW24G32   29.99R WCI -12
GARRISON         N/A      9   3  77 NW24G33   30.01R WCI -12
WILLISTON      FAIR       6  -2  69 NW17G26   30.13R WCI -13
DICKINSON      FAIR       9  -1  64 NW20G28   30.01R WCI -10
HETTINGER      FAIR      18   6  59 NW21G28   30.00R WCI   1
$$

 *****  OTHER AIRPORT OBSERVATIONS IN OUR AREA  *****

CITY           SKY/WX    TMP DP  RH WIND       PRES   REMARKS
WALHALLA       FLURRIES  14  12  92 NW29G45   29.85R WCI  -7
GRAFTON AIRPOR CLOUDY    16  12  86 NW26G33   29.84R WCI  -3
VALLEY CITY AR FLURRIES  18  10  73 NW31G43   29.85R WCI  -2
CANDO          FAIR      14   7  73 NW26G38   29.91R WCI  -6
CAVALIER APRT  LGT SNOW  16  10  79 NW29G37   29.83R WCI  -4
GWINNER          N/A     19   9  63 NW23G32   29.86R WCI   2
SHEYENNE NWR     N/A     21  11  65 NW18      29.95S WCI   6
ROLLA          CLOUDY    10   5  79 NW31G40   29.89R WCI -12
 ***** THE ABOVE OBSERVATIONS ARE NON NWS ARE NOT QUALITY
       CONTROLLED AND MAY MIS-REPORT RAIN FOR SNOW...
$$

  *****  WEATHER ACROSS NORTHERN MINNESOTA  *****

CITY           SKY/WX    TMP DP  RH WIND       PRES   REMARKS
FLAG ISLAND    CLOUDY    18  10  73 NW32      29.59R HAZE    WCI  -3
WARROAD        LGT SNOW  18  12  79 NW21G28   29.62R WCI   1
ROSEAU         FLURRIES  18  12  79 NW21G29   29.65R WCI   1
HALLOCK        LGT SNOW  18  12  79 NW21G32   29.78R WCI   1
THF RVR FALLS  NOT AVBL
BAUDETTE       LGT SNOW  18  14  84 NW22G30   29.56R FOG     WCI   1
WASKISH        LGT SNOW  18  14  86 W21G26    29.58R WCI   1
CROOKSTON      CLOUDY    18  10  73 NW30G37   29.78R WCI  -2
STEPHEN NDAWN    N/A     18  10  73 NW20        N/A  WCI   1
GREENBUSH NDAW   N/A     16  10  79 NW22        N/A  WCI  -2
$$
  *****  WEATHER ACROSS CENTRAL AND WEST MINNESOTA  *****

CITY           SKY/WX    TMP DP  RH WIND       PRES   REMARKS
FOSSTON        FLURRIES  16   9  73 NW25G32   29.70R WCI  -3
BEMIDJI        MOCLDY    17   8  67 NW32G38   29.62R WCI  -3
PARK RAPIDS    CLOUDY    21  11  65 NW23G33   29.62R WCI   5
ELBOW LAKE     CLOUDY    24  14  67 NW29G37   29.75R WCI   6
WADENA         CLOUDY    21  12  68 NW17G28   29.65R WCI   7
DETROIT LAKES  CLOUDY    23  12  63 NW36G45   29.70R WCI   4
MOORHEAD       CLOUDY    23  12  63 NW33G39   29.78R WCI   5
FERGUS FALLS   FLURRIES  23  16  74 NW28G37   29.77R WCI   6
MORRIS MN      FAIR      25  16  68 NW29G36   29.75R WCI   8
STAPLES        CLOUDY    21  10  63 NW18G31   29.64R WCI   6
$$
  *****  WEATHER ELSEWHERE ACROSS MINNESOTA  *****

CITY           SKY/WX    TMP DP  RH WIND       PRES   REMARKS
DULUTH         CLOUDY    28  19  69 NW25G36   29.41R WCI  13
INTRNTL FALLS  LGT SNOW  20  15  81 W16G28    29.46R WCI   6
ELY            LGT SNOW  21  16  79 W21G32    29.38R WCI   6
CLOQUET        CLOUDY    28  16  59 W16G29    29.47R WCI  17
WHEATON        FAIR      21  12  68 NW24G36   29.83R WCI   4
BRAINERD       FLURRIES  25  13  60 W24G38    29.60R WCI   9
HIBBING        MIX PCPN  23  12  62 NW24G38   29.48R WCI   7
ALEXANDRIA     CLOUDY    25  15  66 NW21G29   29.69R WCI  11
SAINT CLOUD    MOCLDY    30  19  63 W20G38    29.63R WCI  17
MINNEAPOLIS    FAIR      36  21  54 W16G29    29.60R
$$

  *****  WEATHER ACROSS SOUTH DAKOTA  *****

CITY           SKY/WX    TMP DP  RH WIND       PRES   REMARKS
SIOUX FALLS    CLOUDY    38  19  46 NW10      29.81R
BROOKINGS      CLOUDY    35  18  49 NW24      29.77R WCI  23
WATERTOWN      FAIR      30  17  58 NW21G28   29.76R WCI  17
HURON          CLOUDY    37  15  40 NW21G30   29.85R
SISSETON         N/A     24  11  57 NW31G43   29.79R WCI   7
ABERDEEN       FAIR      22   6  50 NW31G40   29.90R WCI   4
MITCHELL       CLOUDY    40  24  53 NW10      29.86R
PIERRE         FLURRIES  36  22  56 NW21G30   29.91R
MOBRIDGE       FAIR      23   7  50 N24G36    29.92R WCI   7
RAPID CITY     FLURRIES  29  25  85 N24G33    30.01R WCI  15
$$

  *****  SOME WEATHER IN NEARBY STATES *****

CITY           SKY/WX    TMP DP  RH WIND       PRES   REMARKS
GLASGOW MT     FAIR       7  -2  66 NW15      30.21R WCI -10
GREAT FALLS MT FLURRIES  22  19  89 NE7       30.18R WCI  13
CHEYENNE WY    FAIR      44  27  51 W23G31    29.95R
SCOTTSBLUFF NE FAIR      51  27  39 W18G29    29.87R
OMAHA NE       MOCLDY    35  27  72 NW3       29.73R
DES MOINES IA  MOCLDY    42  30  62 W6        29.69R
DAVENPORT IA   FAIR      45  31  58 SW10      29.68R
CHICAGO IL     MOCLDY    44  31  60 SW20G25   29.66S
EAU CLAIRE WI  FAIR      39  25  57 W15G26    29.50R
LA CROSSE WI   FAIR      43  28  55 W10       29.56R
$$

  *****  SOME NATIONAL WEATHER *****

CITY           SKY/WX    TMP DP  RH WIND       PRES   REMARKS
LA GUARDIA NY  FAIR      45  28  51 SW13      30.12S
RALEIGH NC     MOCLDY    34  31  88 CALM      30.24S
ATLANTA GA     MOCLDY    45  37  73 E7        30.15F
NEW ORLEANS LA CLOUDY    55  51  86 E3        30.05R
OKLAHOMA CITY  MOCLDY    41  31  67 S8        29.81S
ALBUQUERQUE NM MOCLDY    45   1  16 N6        30.11F
SALT LAKE CITY MOCLDY    44  38  79 N7        30.17R
LOS ANGELES CA MOCLDY    63  49  60 SE6       30.03R
BOISE ID       CLOUDY    47  42  83 SE9       30.13R
SEATTLE WA     FAIR      42  37  82 E7        30.04F
$$

*** WEATHER ACROSS MANITOBA...SASKATCHEWAN AND ONTARIO ***
                ***ONTARIO***

CITY           SKY/WX    TMP DP  RH WIND       PRES   REMARKS
GERALDTON      SNOW      32  32 100 W7        29.04R VSB 1/2
THUNDER BAY    MOCLDY    36  30  80 W16G31    29.17R
SIOUX LOOKOUT  LGT SNOW  14  10  85 N9G21     29.36R BLWGSNOWWCI   2
TORONTO        CLEAR     41  30  65 S14G21    29.76F
BIG TROUT LK   CLOUDY    10   7  85 NW8       29.52R WCI  -1
PICKLE LAKE    NOT AVBL
DRYDEN         LGT SNOW  14  10  85 N12G20    29.45R WCI   0
KENORA         LGT SNOW  14  10  85 N20G28    29.52  DRFTSNOWWCI  -3
$$
                *** MANITOBA***

CITY           SKY/WX    TMP DP  RH WIND       PRES   REMARKS
BRANDON        MOCLDY    10   3  72 NW17      29.94R WCI  -7
DAUPHIN        FLURRIES   9   3  78 NW10      30.02R WCI  -6
ISLAND LAKE    FLURRIES  10   7  85 NW8G17    29.73R WCI  -1
PILOT MOUND      N/A     12   7  79 NW20G25     N/A  WCI  -6
THE PAS        CLOUDY     5   0  78 W14G22    30.03R WCI -12
THOMPSON       FLURRIES  14   9  79 NW14G21   29.82R WCI  -1
WINNIPEG       PTCLDY    12   7  79 N24G30    29.81R WCI  -8
LYNN LAKE      FLURRIES   9   7  92 NW13G18   29.94R WCI  -7
CHURCHILL      LGT SNOW  14  12  92 NW24G36   29.59R VSB 5/8 WCI  -5
GILLAM         FLURRIES  14  10  85 NW18G26   29.69  WCI  -3
$$
                ***SASKATCHEWAN***

CITY           SKY/WX    TMP DP  RH WIND       PRES   REMARKS
ESTEVAN        PTCLDY     3  -4  72 NW17G24   30.09R WCI -17
KINDERSLEY     CLEAR     -9 -15  77 W6        30.23R WCI -23
LLOYDMINSTER   CLOUDY     0  -4  85 NW8       30.21R WCI -15
PRINCE ALBERT  FLURRIES   9   3  78 NW8       30.20R WCI  -4
REGINA         CLOUDY     1  -4  78 NW21      30.16R WCI -20
YORKTON        CLOUDY     9   5  85 NW21      30.04R WCI -11
N. BATTLEFORD  FLURRIES   0  -6  78 W10       30.26R WCI -17
LA RONGE       FLURRIES   3   0  85 W6        30.16R WCI  -8
SASKATOON      FLURRIES   3  -4  72 W12       30.23R WCI -13
SWIFT CURRENT  CLEAR     -4 -11  71 W12G17    30.19R WCI -22
$$
NOTE: THESE ARE AUTOMATED STATIONS WITH LIMITED QUALITY CONTROL
      "FAIR" INDICATES FEW OR NO CLOUDS BELOW 12,000 FEET WITH NO
      SIGNIFICANT WEATHER AND/OR OBSTRUCTIONS TO VISIBILITY.
      SKY/WX - SKY CONDITION AND SIGNIFICANT WEATHER.
      TMP - AIR TEMPERATURE.    DP   - DEWPOINT TEMPERATURE.
      RH  - RELATIVE HUMIDITY.  PRES - PRESSURE.
      HX  - HEAT INDEX.         WCI  - WIND CHILL INDEX.
$




USA.gov is the U.S. government's official web portal to all federal, state and local government web resources and services.